Погода в Кременкуле

Россия / Челябинская область     55°11′11″N   61°09′08″E
темп.,
°C
ветер,
м/с
пор.,
м/с
влажн.,
%
обл.,
%
осадки,
мм/ч
давл.,
гПа
погр.,
м
8 марта, пн
пн823:00−15зсз4118773 0.2 1009262
02:00−18з48910 0.0 1010136
05:00−19зюз33900 0.0 101138
08:00−19ююз369033 0.0 101197
11:00−13ююз5108867 0.0 1009406
14:00−8ююз71288100 0.6 1007892
17:00−5ююз61383100 0.6 10051139
20:00−7ююз6168061 0.0 1004580
9 марта, вт
вт923:00−7юз5148550 0.0 1006471
02:00−8юз5108945 0.0 1006232
05:00−7ююз4138973 0.0 1006487
08:00−6ююз71685100 0.0 1003687
11:00−3зюз8157968 0.1 10031815
14:00−4з8137449 0.0 10061389
17:00−4з488047 0.1 1010789
20:00−9зюз348391 0.0 101147
10 марта, ср
ср1023:00−11юз128296 0.0 101221
02:00−11вюв2386100 0.0 101026
05:00−11вюв3792100 0.0 1008175
08:00−9вюв4995100 0.3 1005342
11:00−7юв5895100 1.3 1002440
14:00−5вюв5895100 1.1 999527
17:00−4вюв5896100 2.6 997508
20:00−7юз3789100 1.9 998366
11 марта, чт
чт1123:00−15ю228889 2.0 99923
02:00−17в129341 0.2 100034
05:00−14с8149371 0.9 1002612
08:00−17с71395100 0.9 1005549
11:00−16ссз71192100 1.4 1007571
14:00−13ссз61088100 0.1 1009752
17:00−12сз6986100 0.1 1010890
20:00−15сз61384100 0.0 1013665
12 марта, пт
пт1223:00−17зсз51191100 0.1 1015443
02:00−19зсз5128986 0.0 1016361
05:00−18з4119593 0.1 1017358
08:00−17ссз2397100 0.6 1018181
11:00−14з378898 0.8 1020584
14:00−9зсз6981100 0.1 10211204
17:00−10зсз598099 0.2 10211002
20:00−14зсз4138536 0.0 1023396